Regional Weather Roundup
Issued by NWS

Home | Current Version | Previous Version | Graphics & Text | Print | Product List | Glossary On
Versions: 1 2 3 4 5 6 7 8 9 10 11 12 13 14 15 16 17 18 19 20 21 22 23 24 25 26 27 28 29 30 31 32 33 34 35 36 37 38 39 40 41 42 43 44 45 46 47 48 49 50
000
ASUS43 KBIS 190201
RWRND

NORTH DAKOTA REGIONAL WEATHER ROUNDUP
NATIONAL WEATHER SERVICE BISMARCK ND
900 PM CDT SAT APR 18 2015

NOTE: "FAIR" INDICATES FEW OR NO CLOUDS BELOW 12,000 FEET WITH NO
SIGNIFICANT WEATHER AND/OR OBSTRUCTIONS TO VISIBILITY.


NDZ001>003-009>011-017-190300-
NORTHWEST NORTH DAKOTA

CITY           SKY/WX    TMP DP  RH WIND       PRES   REMARKS
WILLISTON      CLOUDY    52  25  35 NW18      29.99R
MINOT          RAIN      50  44  80 NW6       29.91R
MINOT AFB      LGT RAIN  50  50  99 N6        29.89R
$$

NDZ018>021-031>035-040>046-190300-
SOUTHWEST NORTH DAKOTA

CITY           SKY/WX    TMP DP  RH WIND       PRES   REMARKS
BISMARCK       LGT RAIN  51  44  77 W8        29.93R
DICKINSON      LGT RAIN  48  44  86 N8        29.94R
GARRISON         N/A     50  45  83 N15       29.92R
HETTINGER ARPT LGT RAIN  48  44  86 N12       29.94S
$$

NDZ004>008-012>016-024-026-027-054-190300-
NORTHEAST NORTH DAKOTA

CITY           SKY/WX    TMP DP  RH WIND       PRES   REMARKS
GRAND FORKS    CLOUDY    61  30  31 SE6       29.85F
GRND FRKS AFB  CLOUDY    56  32  40 E3        29.85F
DEVILS LAKE    CLOUDY    59  28  31 S8        29.85S
$$

NDZ022-023-025-028>030-036>039-047>053-190300-
SOUTHEAST NORTH DAKOTA

CITY           SKY/WX    TMP DP  RH WIND       PRES   REMARKS
FARGO          CLOUDY    66  29  24 SE12      29.84F
JAMESTOWN      CLOUDY    60  30  32 N8        29.85F
$$




USA.gov is the U.S. government's official web portal to all federal, state and local government web resources and services.